Year,Month,Day,Hour,Minute,Value (Times are PST for windgust in km/hr)
2004,07,07,00,00,17.60
2004,07,07,00,01,13.00
2004,07,07,00,02,19.40
2004,07,07,00,03,13.00
2004,07,07,00,04,4.70
2004,07,07,00,05,19.40
2004,07,07,00,06,19.40
2004,07,07,00,07,20.90
2004,07,07,00,08,25.90
2004,07,07,00,09,11.20
2004,07,07,00,10,16.20
2004,07,07,00,11,22.70
2004,07,07,00,12,16.20
2004,07,07,00,13,13.00
2004,07,07,00,14,17.60
2004,07,07,00,15,16.20
2004,07,07,00,16,25.90
2004,07,07,00,17,19.40
2004,07,07,00,18,16.20
2004,07,07,00,19,16.20
2004,07,07,00,20,17.60
2004,07,07,00,21,7.90
2004,07,07,00,22,19.40
2004,07,07,00,23,25.90
2004,07,07,00,24,22.70
2004,07,07,00,25,27.40
2004,07,07,00,26,17.60
2004,07,07,00,27,17.60
2004,07,07,00,28,17.60
2004,07,07,00,29,13.00
2004,07,07,00,30,16.20
2004,07,07,00,31,19.40
2004,07,07,00,32,17.60
2004,07,07,00,33,13.00
2004,07,07,00,34,13.00
2004,07,07,00,35,19.40
2004,07,07,00,36,17.60
2004,07,07,00,37,9.70
2004,07,07,00,38,27.40
2004,07,07,00,39,17.60
2004,07,07,00,40,11.20
2004,07,07,00,41,7.90
2004,07,07,00,42,17.60
2004,07,07,00,43,20.90
2004,07,07,00,44,16.20
2004,07,07,00,45,20.90
2004,07,07,00,46,20.90
2004,07,07,00,47,19.40
2004,07,07,00,48,9.70
2004,07,07,00,49,11.20
2004,07,07,00,50,9.70
2004,07,07,00,51,13.00
2004,07,07,00,52,19.40
2004,07,07,00,53,16.20
2004,07,07,00,54,13.00
2004,07,07,00,55,17.60
2004,07,07,00,56,11.20
2004,07,07,00,57,16.20
2004,07,07,00,58,11.20
2004,07,07,00,59,9.70
2004,07,07,01,00,9.70
2004,07,07,01,01,4.70
2004,07,07,01,02,7.90
2004,07,07,01,03,13.00
2004,07,07,01,04,16.20
2004,07,07,01,05,4.70
2004,07,07,01,06,11.20
2004,07,07,01,07,11.20
2004,07,07,01,08,16.20
2004,07,07,01,09,16.20
2004,07,07,01,10,20.90
2004,07,07,01,11,22.70
2004,07,07,01,12,9.70
2004,07,07,01,13,17.60
2004,07,07,01,14,17.60
2004,07,07,01,15,9.70
2004,07,07,01,16,4.70
2004,07,07,01,17,11.20
2004,07,07,01,18,11.20
2004,07,07,01,19,7.90
2004,07,07,01,20,19.40
2004,07,07,01,21,19.40
2004,07,07,01,22,16.20
2004,07,07,01,23,17.60
2004,07,07,01,24,17.60
2004,07,07,01,25,19.40
2004,07,07,01,26,20.90
2004,07,07,01,27,16.20
2004,07,07,01,28,9.70
2004,07,07,01,29,19.40
2004,07,07,01,30,19.40
2004,07,07,01,31,13.00
2004,07,07,01,32,16.20
2004,07,07,01,33,16.20
2004,07,07,01,34,16.20
2004,07,07,01,35,7.90
2004,07,07,01,36,16.20
2004,07,07,01,37,19.40
2004,07,07,01,38,17.60
2004,07,07,01,39,20.90
2004,07,07,01,40,13.00
2004,07,07,01,41,19.40
2004,07,07,01,42,25.90
2004,07,07,01,43,13.00
2004,07,07,01,44,19.40
2004,07,07,01,45,16.20
2004,07,07,01,46,25.90
2004,07,07,01,47,25.90
2004,07,07,01,48,16.20
2004,07,07,01,49,19.40
2004,07,07,01,50,19.40
2004,07,07,01,51,17.60
2004,07,07,01,52,16.20
2004,07,07,01,53,17.60
2004,07,07,01,54,17.60
2004,07,07,01,55,17.60
2004,07,07,01,56,16.20
2004,07,07,01,57,16.20
2004,07,07,01,58,17.60
2004,07,07,01,59,25.90
2004,07,07,02,00,9.70
2004,07,07,02,01,17.60
2004,07,07,02,02,17.60
2004,07,07,02,03,11.20
2004,07,07,02,04,20.90
2004,07,07,02,05,22.70
2004,07,07,02,06,20.90
2004,07,07,02,07,17.60
2004,07,07,02,08,16.20
2004,07,07,02,09,11.20
2004,07,07,02,10,20.90
2004,07,07,02,11,17.60
2004,07,07,02,12,16.20
2004,07,07,02,13,13.00
2004,07,07,02,14,16.20
2004,07,07,02,15,16.20
2004,07,07,02,16,13.00
2004,07,07,02,17,16.20
2004,07,07,02,18,19.40
2004,07,07,02,19,16.20
2004,07,07,02,20,17.60
2004,07,07,02,21,11.20
2004,07,07,02,22,13.00
2004,07,07,02,23,13.00
2004,07,07,02,24,19.40
2004,07,07,02,25,13.00
2004,07,07,02,26,7.90
2004,07,07,02,27,16.20
2004,07,07,02,28,16.20
2004,07,07,02,29,13.00
2004,07,07,02,30,9.70
2004,07,07,02,31,19.40
2004,07,07,02,32,16.20
2004,07,07,02,33,16.20
2004,07,07,02,34,11.20
2004,07,07,02,35,16.20
2004,07,07,02,36,11.20
2004,07,07,02,37,11.20
2004,07,07,02,38,17.60
2004,07,07,02,39,16.20
2004,07,07,02,40,16.20
2004,07,07,02,41,16.20
2004,07,07,02,42,17.60
2004,07,07,02,43,13.00
2004,07,07,02,44,11.20
2004,07,07,02,45,16.20
2004,07,07,02,46,17.60
2004,07,07,02,47,17.60
2004,07,07,02,48,16.20
2004,07,07,02,49,7.90
2004,07,07,02,50,11.20
2004,07,07,02,51,7.90
2004,07,07,02,52,16.20
2004,07,07,02,53,20.90
2004,07,07,02,54,20.90
2004,07,07,02,55,20.90
2004,07,07,02,56,17.60
2004,07,07,02,57,13.00
2004,07,07,02,58,13.00
2004,07,07,02,59,9.70
2004,07,07,03,00,20.90
2004,07,07,03,01,7.90
2004,07,07,03,02,9.70
2004,07,07,03,03,19.40
2004,07,07,03,04,16.20
2004,07,07,03,05,11.20
2004,07,07,03,06,17.60
2004,07,07,03,07,9.70
2004,07,07,03,08,9.70
2004,07,07,03,09,13.00
2004,07,07,03,10,20.90
2004,07,07,03,11,19.40
2004,07,07,03,12,16.20
2004,07,07,03,13,16.20
2004,07,07,03,14,11.20
2004,07,07,03,15,16.20
2004,07,07,03,16,11.20
2004,07,07,03,17,11.20
2004,07,07,03,18,9.70
2004,07,07,03,19,16.20
2004,07,07,03,20,11.20
2004,07,07,03,21,17.60
2004,07,07,03,22,13.00
2004,07,07,03,23,13.00
2004,07,07,03,24,16.20
2004,07,07,03,25,13.00
2004,07,07,03,26,16.20
2004,07,07,03,27,7.90
2004,07,07,03,28,11.20
2004,07,07,03,29,9.70
2004,07,07,03,30,16.20
2004,07,07,03,31,11.20
2004,07,07,03,32,9.70
2004,07,07,03,33,9.70
2004,07,07,03,34,3.20
2004,07,07,03,35,17.60
2004,07,07,03,36,11.20
2004,07,07,03,37,16.20
2004,07,07,03,38,11.20
2004,07,07,03,39,9.70
2004,07,07,03,40,16.20
2004,07,07,03,41,17.60
2004,07,07,03,42,13.00
2004,07,07,03,43,16.20
2004,07,07,03,44,11.20
2004,07,07,03,45,11.20
2004,07,07,03,46,11.20
2004,07,07,03,47,9.70
2004,07,07,03,48,7.90
2004,07,07,03,49,11.20
2004,07,07,03,50,11.20
2004,07,07,03,51,11.20
2004,07,07,03,52,13.00
2004,07,07,03,53,13.00
2004,07,07,03,54,7.90
2004,07,07,03,55,9.70
2004,07,07,03,56,7.90
2004,07,07,03,57,16.20
2004,07,07,03,58,17.60
2004,07,07,03,59,16.20
2004,07,07,04,00,16.20
2004,07,07,04,01,9.70
2004,07,07,04,02,11.20
2004,07,07,04,03,16.20
2004,07,07,04,04,13.00
2004,07,07,04,05,16.20
2004,07,07,04,06,9.70
2004,07,07,04,07,9.70
2004,07,07,04,08,11.20
2004,07,07,04,09,11.20
2004,07,07,04,10,17.60
2004,07,07,04,11,13.00
2004,07,07,04,12,17.60
2004,07,07,04,13,16.20
2004,07,07,04,14,16.20
2004,07,07,04,15,19.40
2004,07,07,04,16,16.20
2004,07,07,04,17,17.60
2004,07,07,04,18,11.20
2004,07,07,04,19,13.00
2004,07,07,04,20,13.00
2004,07,07,04,21,11.20
2004,07,07,04,22,19.40
2004,07,07,04,23,17.60
2004,07,07,04,24,13.00
2004,07,07,04,25,7.90
2004,07,07,04,26,11.20
2004,07,07,04,27,17.60
2004,07,07,04,28,11.20
2004,07,07,04,29,13.00
2004,07,07,04,30,19.40
2004,07,07,04,31,16.20
2004,07,07,04,32,7.90
2004,07,07,04,33,11.20
2004,07,07,04,34,9.70
2004,07,07,04,35,9.70
2004,07,07,04,36,16.20
2004,07,07,04,37,11.20
2004,07,07,04,38,11.20
2004,07,07,04,39,4.70
2004,07,07,04,40,9.70
2004,07,07,04,41,9.70
2004,07,07,04,42,13.00
2004,07,07,04,43,11.20
2004,07,07,04,44,19.40
2004,07,07,04,45,9.70
2004,07,07,04,46,7.90
2004,07,07,04,47,11.20
2004,07,07,04,48,13.00
2004,07,07,04,49,13.00
2004,07,07,04,50,9.70
2004,07,07,04,51,7.90
2004,07,07,04,52,3.20
2004,07,07,04,53,13.00
2004,07,07,04,54,13.00
2004,07,07,04,55,4.70
2004,07,07,04,56,16.20
2004,07,07,04,57,16.20
2004,07,07,04,58,4.70
2004,07,07,04,59,16.20
2004,07,07,05,00,17.60
2004,07,07,05,01,11.20
2004,07,07,05,02,3.20
2004,07,07,05,03,4.70
2004,07,07,05,04,9.70
2004,07,07,05,05,3.20
2004,07,07,05,06,11.20
2004,07,07,05,07,11.20
2004,07,07,05,08,9.70
2004,07,07,05,09,9.70
2004,07,07,05,10,9.70
2004,07,07,05,11,11.20
2004,07,07,05,12,9.70
2004,07,07,05,13,7.90
2004,07,07,05,14,7.90
2004,07,07,05,15,16.20
2004,07,07,05,16,9.70
2004,07,07,05,17,4.70
2004,07,07,05,18,17.60
2004,07,07,05,19,11.20
2004,07,07,05,20,9.70
2004,07,07,05,21,9.70
2004,07,07,05,22,13.00
2004,07,07,05,23,4.70
2004,07,07,05,24,9.70
2004,07,07,05,25,16.20
2004,07,07,05,26,17.60
2004,07,07,05,27,11.20
2004,07,07,05,28,13.00
2004,07,07,05,29,11.20
2004,07,07,05,30,16.20
2004,07,07,05,31,11.20
2004,07,07,05,32,4.70
2004,07,07,05,33,4.70
2004,07,07,05,34,9.70
2004,07,07,05,35,3.20
2004,07,07,05,36,13.00
2004,07,07,05,37,16.20
2004,07,07,05,38,16.20
2004,07,07,05,39,16.20
2004,07,07,05,40,16.20
2004,07,07,05,41,9.70
2004,07,07,05,42,9.70
2004,07,07,05,43,13.00
2004,07,07,05,44,3.20
2004,07,07,05,45,9.70
2004,07,07,05,46,9.70
2004,07,07,05,47,16.20
2004,07,07,05,48,13.00
2004,07,07,05,49,13.00
2004,07,07,05,50,9.70
2004,07,07,05,51,9.70
2004,07,07,05,52,9.70
2004,07,07,05,53,13.00
2004,07,07,05,54,7.90
2004,07,07,05,55,13.00
2004,07,07,05,56,13.00
2004,07,07,05,57,9.70
2004,07,07,05,58,7.90
2004,07,07,05,59,4.70
2004,07,07,06,00,4.70
2004,07,07,06,01,13.00
2004,07,07,06,02,11.20
2004,07,07,06,03,7.90
2004,07,07,06,04,9.70
2004,07,07,06,05,13.00
2004,07,07,06,06,11.20
2004,07,07,06,07,9.70
2004,07,07,06,08,11.20
2004,07,07,06,09,11.20
2004,07,07,06,10,13.00
2004,07,07,06,11,9.70
2004,07,07,06,12,16.20
2004,07,07,06,13,17.60
2004,07,07,06,14,13.00
2004,07,07,06,15,13.00
2004,07,07,06,16,13.00
2004,07,07,06,17,13.00
2004,07,07,06,18,9.70
2004,07,07,06,19,9.70
2004,07,07,06,20,7.90
2004,07,07,06,21,11.20
2004,07,07,06,22,11.20
2004,07,07,06,23,9.70
2004,07,07,06,24,7.90
2004,07,07,06,25,9.70
2004,07,07,06,26,9.70
2004,07,07,06,27,13.00
2004,07,07,06,28,13.00
2004,07,07,06,29,13.00
2004,07,07,06,30,11.20
2004,07,07,06,31,11.20
2004,07,07,06,32,13.00
2004,07,07,06,33,7.90
2004,07,07,06,34,13.00
2004,07,07,06,35,11.20
2004,07,07,06,36,11.20
2004,07,07,06,37,11.20
2004,07,07,06,38,11.20
2004,07,07,06,39,13.00
2004,07,07,06,40,11.20
2004,07,07,06,41,16.20
2004,07,07,06,42,16.20
2004,07,07,06,43,11.20
2004,07,07,06,44,11.20
2004,07,07,06,45,11.20
2004,07,07,06,46,16.20
2004,07,07,06,47,13.00
2004,07,07,06,48,7.90
2004,07,07,06,49,13.00
2004,07,07,06,50,4.70
2004,07,07,06,51,9.70
2004,07,07,06,52,13.00
2004,07,07,06,53,13.00
2004,07,07,06,54,3.20
2004,07,07,06,55,4.70
2004,07,07,06,56,4.70
2004,07,07,06,57,11.20
2004,07,07,06,58,16.20
2004,07,07,06,59,4.70
2004,07,07,07,00,9.70
2004,07,07,07,01,11.20
2004,07,07,07,02,9.70
2004,07,07,07,03,17.60
2004,07,07,07,04,16.20
2004,07,07,07,05,17.60
2004,07,07,07,06,11.20
2004,07,07,07,07,11.20
2004,07,07,07,08,19.40
2004,07,07,07,09,13.00
2004,07,07,07,10,9.70
2004,07,07,07,11,9.70
2004,07,07,07,12,17.60
2004,07,07,07,13,16.20
2004,07,07,07,14,17.60
2004,07,07,07,15,13.00
2004,07,07,07,16,11.20
2004,07,07,07,17,13.00
2004,07,07,07,18,20.90
2004,07,07,07,19,16.20
2004,07,07,07,20,13.00
2004,07,07,07,21,11.20
2004,07,07,07,22,19.40
2004,07,07,07,23,13.00
2004,07,07,07,24,17.60
2004,07,07,07,25,19.40
2004,07,07,07,26,16.20
2004,07,07,07,27,9.70
2004,07,07,07,28,16.20
2004,07,07,07,29,13.00
2004,07,07,07,30,13.00
2004,07,07,07,31,13.00
2004,07,07,07,32,7.90
2004,07,07,07,33,11.20
2004,07,07,07,34,16.20
2004,07,07,07,35,11.20
2004,07,07,07,36,19.40
2004,07,07,07,37,13.00
2004,07,07,07,38,11.20
2004,07,07,07,39,13.00
2004,07,07,07,40,13.00
2004,07,07,07,41,11.20
2004,07,07,07,42,7.90
2004,07,07,07,43,13.00
2004,07,07,07,44,13.00
2004,07,07,07,45,7.90
2004,07,07,07,46,7.90
2004,07,07,07,47,13.00
2004,07,07,07,48,16.20
2004,07,07,07,49,16.20
2004,07,07,07,50,16.20
2004,07,07,07,51,16.20
2004,07,07,07,52,9.70
2004,07,07,07,53,16.20
2004,07,07,07,54,11.20
2004,07,07,07,55,13.00
2004,07,07,07,56,11.20
2004,07,07,07,57,9.70
2004,07,07,07,58,19.40
2004,07,07,07,59,19.40
2004,07,07,08,00,11.20
2004,07,07,08,01,7.90
2004,07,07,08,02,19.40
2004,07,07,08,03,13.00
2004,07,07,08,04,11.20
2004,07,07,08,05,4.70
2004,07,07,08,06,4.70
2004,07,07,08,07,13.00
2004,07,07,08,08,17.60
2004,07,07,08,09,17.60
2004,07,07,08,10,13.00
2004,07,07,08,11,4.70
2004,07,07,08,12,11.20
2004,07,07,08,13,13.00
2004,07,07,08,14,11.20
2004,07,07,08,15,11.20
2004,07,07,08,16,17.60
2004,07,07,08,17,17.60
2004,07,07,08,18,11.20
2004,07,07,08,19,16.20
2004,07,07,08,20,11.20
2004,07,07,08,21,3.20
2004,07,07,08,22,16.20
2004,07,07,08,23,7.90
2004,07,07,08,24,4.70
2004,07,07,08,25,13.00
2004,07,07,08,26,9.70
2004,07,07,08,27,9.70
2004,07,07,08,28,7.90
2004,07,07,08,29,11.20
2004,07,07,08,30,4.70
2004,07,07,08,31,4.70
2004,07,07,08,32,7.90
2004,07,07,08,33,7.90
2004,07,07,08,34,17.60
2004,07,07,08,35,16.20
2004,07,07,08,36,16.20
2004,07,07,08,37,13.00
2004,07,07,08,38,11.20
2004,07,07,08,39,22.70
2004,07,07,08,40,25.90
2004,07,07,08,41,16.20
2004,07,07,08,42,17.60
2004,07,07,08,43,22.70
2004,07,07,08,44,9.70
2004,07,07,08,45,16.20
2004,07,07,08,46,11.20
2004,07,07,08,47,13.00
2004,07,07,08,48,13.00
2004,07,07,08,49,19.40
2004,07,07,08,50,16.20
2004,07,07,08,51,30.60
2004,07,07,08,52,11.20
2004,07,07,08,53,20.90
2004,07,07,08,54,11.20
2004,07,07,08,55,22.70
2004,07,07,08,56,17.60
2004,07,07,08,57,13.00
2004,07,07,08,58,9.70
2004,07,07,08,59,13.00
2004,07,07,09,00,13.00
2004,07,07,09,01,16.20
2004,07,07,09,02,13.00
2004,07,07,09,03,11.20
2004,07,07,09,04,11.20
2004,07,07,09,05,19.40
2004,07,07,09,06,17.60
2004,07,07,09,07,22.70
2004,07,07,09,08,16.20
2004,07,07,09,09,16.20
2004,07,07,09,10,16.20
2004,07,07,09,11,16.20
2004,07,07,09,12,16.20
2004,07,07,09,13,7.90
2004,07,07,09,14,7.90
2004,07,07,09,15,9.70
2004,07,07,09,16,7.90
2004,07,07,09,17,19.40
2004,07,07,09,18,17.60
2004,07,07,09,19,16.20
2004,07,07,09,20,11.20
2004,07,07,09,21,13.00
2004,07,07,09,22,16.20
2004,07,07,09,23,19.40
2004,07,07,09,24,17.60
2004,07,07,09,25,16.20
2004,07,07,09,26,13.00
2004,07,07,09,27,17.60
2004,07,07,09,28,20.90
2004,07,07,09,29,25.90
2004,07,07,09,30,20.90
2004,07,07,09,31,20.90
2004,07,07,09,32,13.00
2004,07,07,09,33,30.60
2004,07,07,09,34,16.20
2004,07,07,09,35,19.40
2004,07,07,09,36,22.70
2004,07,07,09,37,17.60
2004,07,07,09,38,16.20
2004,07,07,09,39,7.90
2004,07,07,09,40,32.00
2004,07,07,09,41,22.70
2004,07,07,09,42,20.90
2004,07,07,09,43,9.70
2004,07,07,09,44,17.60
2004,07,07,09,45,25.90
2004,07,07,09,46,16.20
2004,07,07,09,47,16.20
2004,07,07,09,48,17.60
2004,07,07,09,49,19.40
2004,07,07,09,50,16.20
2004,07,07,09,51,19.40
2004,07,07,09,52,16.20
2004,07,07,09,53,28.80
2004,07,07,09,54,27.40
2004,07,07,09,55,27.40
2004,07,07,09,56,22.70
2004,07,07,09,57,30.60
2004,07,07,09,58,25.90
2004,07,07,09,59,25.90
2004,07,07,10,00,27.40
2004,07,07,10,01,17.60
2004,07,07,10,02,25.90
2004,07,07,10,03,20.90
2004,07,07,10,04,16.20
2004,07,07,10,05,27.40
2004,07,07,10,06,28.80
2004,07,07,10,07,30.60
2004,07,07,10,08,16.20
2004,07,07,10,09,19.40
2004,07,07,10,10,13.00
2004,07,07,10,11,16.20
2004,07,07,10,12,32.00
2004,07,07,10,13,30.60
2004,07,07,10,14,13.00
2004,07,07,10,15,20.90
2004,07,07,10,16,20.90
2004,07,07,10,17,19.40
2004,07,07,10,18,27.40
2004,07,07,10,19,20.90
2004,07,07,10,20,38.50
2004,07,07,10,21,32.00
2004,07,07,10,22,25.90
2004,07,07,10,23,16.20
2004,07,07,10,24,17.60
2004,07,07,10,25,16.20
2004,07,07,10,26,25.90
2004,07,07,10,27,22.70
2004,07,07,10,28,28.80
2004,07,07,10,29,22.70
2004,07,07,10,30,30.60
2004,07,07,10,31,22.70
2004,07,07,10,32,27.40
2004,07,07,10,33,27.40
2004,07,07,10,34,35.30
2004,07,07,10,35,27.40
2004,07,07,10,36,22.70
2004,07,07,10,37,22.70
2004,07,07,10,38,16.20
2004,07,07,10,39,32.00
2004,07,07,10,40,25.90
2004,07,07,10,41,16.20
2004,07,07,10,42,16.20
2004,07,07,10,43,22.70
2004,07,07,10,44,27.40
2004,07,07,10,45,30.60
2004,07,07,10,46,20.90
2004,07,07,10,47,27.40
2004,07,07,10,48,33.80
2004,07,07,10,49,32.00
2004,07,07,10,50,28.80
2004,07,07,10,51,32.00
2004,07,07,10,52,19.40
2004,07,07,10,53,17.60
2004,07,07,10,54,20.90
2004,07,07,10,55,27.40
2004,07,07,10,56,19.40
2004,07,07,10,57,30.60
2004,07,07,10,58,28.80
2004,07,07,10,59,19.40
2004,07,07,11,00,22.70
2004,07,07,11,01,27.40
2004,07,07,11,02,33.80
2004,07,07,11,03,28.80
2004,07,07,11,04,19.40
2004,07,07,11,05,22.70
2004,07,07,11,06,20.90
2004,07,07,11,07,30.60
2004,07,07,11,08,25.90
2004,07,07,11,09,25.90
2004,07,07,11,10,13.00
2004,07,07,11,11,19.40
2004,07,07,11,12,17.60
2004,07,07,11,13,19.40
2004,07,07,11,14,20.90
2004,07,07,11,15,11.20
2004,07,07,11,16,20.90
2004,07,07,11,17,17.60
2004,07,07,11,18,28.80
2004,07,07,11,19,27.40
2004,07,07,11,20,20.90
2004,07,07,11,21,16.20
2004,07,07,11,22,16.20
2004,07,07,11,23,22.70
2004,07,07,11,24,16.20
2004,07,07,11,25,22.70
2004,07,07,11,26,32.00
2004,07,07,11,27,20.90
2004,07,07,11,28,22.70
2004,07,07,11,29,25.90
2004,07,07,11,30,20.90
2004,07,07,11,31,22.70
2004,07,07,11,32,20.90
2004,07,07,11,33,20.90
2004,07,07,11,34,17.60
2004,07,07,11,35,19.40
2004,07,07,11,36,25.90
2004,07,07,11,37,22.70
2004,07,07,11,38,17.60
2004,07,07,11,39,20.90
2004,07,07,11,40,28.80
2004,07,07,11,41,22.70
2004,07,07,11,42,19.40
2004,07,07,11,43,22.70
2004,07,07,11,44,11.20
2004,07,07,11,45,13.00
2004,07,07,11,46,17.60
2004,07,07,11,47,20.90
2004,07,07,11,48,22.70
2004,07,07,11,49,22.70
2004,07,07,11,50,19.40
2004,07,07,11,51,11.20
2004,07,07,11,52,25.90
2004,07,07,11,53,20.90
2004,07,07,11,54,16.20
2004,07,07,11,55,19.40
2004,07,07,11,56,17.60
2004,07,07,11,57,27.40
2004,07,07,11,58,25.90
2004,07,07,11,59,20.90
2004,07,07,12,00,11.20
2004,07,07,12,01,27.40
2004,07,07,12,02,32.00
2004,07,07,12,03,22.70
2004,07,07,12,04,22.70
2004,07,07,12,05,19.40
2004,07,07,12,06,25.90
2004,07,07,12,07,30.60
2004,07,07,12,08,22.70
2004,07,07,12,09,32.00
2004,07,07,12,10,22.70
2004,07,07,12,11,32.00
2004,07,07,12,12,32.00
2004,07,07,12,13,16.20
2004,07,07,12,14,25.90
2004,07,07,12,15,27.40
2004,07,07,12,16,30.60
2004,07,07,12,17,20.90
2004,07,07,12,18,16.20
2004,07,07,12,19,28.80
2004,07,07,12,20,27.40
2004,07,07,12,21,22.70
2004,07,07,12,22,19.40
2004,07,07,12,23,17.60
2004,07,07,12,24,17.60
2004,07,07,12,25,27.40
2004,07,07,12,26,20.90
2004,07,07,12,27,22.70
2004,07,07,12,28,16.20
2004,07,07,12,29,20.90
2004,07,07,12,30,20.90
2004,07,07,12,31,28.80
2004,07,07,12,32,30.60
2004,07,07,12,33,20.90
2004,07,07,12,34,38.50
2004,07,07,12,35,27.40
2004,07,07,12,36,19.40
2004,07,07,12,37,17.60
2004,07,07,12,38,19.40
2004,07,07,12,39,20.90
2004,07,07,12,40,41.80
2004,07,07,12,41,17.60
2004,07,07,12,42,22.70
2004,07,07,12,43,28.80
2004,07,07,12,44,25.90
2004,07,07,12,45,20.90
2004,07,07,12,46,20.90
2004,07,07,12,47,30.60
2004,07,07,12,48,17.60
2004,07,07,12,49,33.80
2004,07,07,12,50,32.00
2004,07,07,12,51,33.80
2004,07,07,12,52,32.00
2004,07,07,12,53,22.70
2004,07,07,12,54,38.50
2004,07,07,12,55,25.90
2004,07,07,12,56,28.80
2004,07,07,12,57,38.50
2004,07,07,12,58,22.70
2004,07,07,12,59,38.50
2004,07,07,13,00,27.40
2004,07,07,13,01,27.40
2004,07,07,13,02,17.60
2004,07,07,13,03,17.60
2004,07,07,13,04,32.00
2004,07,07,13,05,28.80
2004,07,07,13,06,30.60
2004,07,07,13,07,27.40
2004,07,07,13,08,22.70
2004,07,07,13,09,22.70
2004,07,07,13,10,20.90
2004,07,07,13,11,43.60
2004,07,07,13,12,32.00
2004,07,07,13,13,11.20
2004,07,07,13,14,16.20
2004,07,07,13,15,19.40
2004,07,07,13,16,19.40
2004,07,07,13,17,33.80
2004,07,07,13,18,19.40
2004,07,07,13,19,27.40
2004,07,07,13,20,27.40
2004,07,07,13,21,35.30
2004,07,07,13,22,20.90
2004,07,07,13,23,16.20
2004,07,07,13,24,22.70
2004,07,07,13,25,25.90
2004,07,07,13,26,28.80
2004,07,07,13,27,19.40
2004,07,07,13,28,27.40
2004,07,07,13,29,28.80
2004,07,07,13,30,22.70
2004,07,07,13,31,32.00
2004,07,07,13,32,19.40
2004,07,07,13,33,28.80
2004,07,07,13,34,32.00
2004,07,07,13,35,40.30
2004,07,07,13,36,40.30
2004,07,07,13,37,40.30
2004,07,07,13,38,35.30
2004,07,07,13,39,32.00
2004,07,07,13,40,17.60
2004,07,07,13,41,22.70
2004,07,07,13,42,35.30
2004,07,07,13,43,22.70
2004,07,07,13,44,32.00
2004,07,07,13,45,30.60
2004,07,07,13,46,30.60
2004,07,07,13,47,13.00
2004,07,07,13,48,13.00
2004,07,07,13,49,22.70
2004,07,07,13,50,28.80
2004,07,07,13,51,32.00
2004,07,07,13,52,32.00
2004,07,07,13,53,25.90
2004,07,07,13,54,35.30
2004,07,07,13,55,33.80
2004,07,07,13,56,28.80
2004,07,07,13,57,32.00
2004,07,07,13,58,32.00
2004,07,07,13,59,32.00
2004,07,07,14,00,30.60
2004,07,07,14,01,28.80
2004,07,07,14,02,27.40
2004,07,07,14,03,27.40
2004,07,07,14,04,25.90
2004,07,07,14,05,25.90
2004,07,07,14,06,27.40
2004,07,07,14,07,33.80
2004,07,07,14,08,13.00
2004,07,07,14,09,27.40
2004,07,07,14,10,33.80
2004,07,07,14,11,22.70
2004,07,07,14,12,25.90
2004,07,07,14,13,33.80
2004,07,07,14,14,20.90
2004,07,07,14,15,35.30
2004,07,07,14,16,41.80
2004,07,07,14,17,25.90
2004,07,07,14,18,35.30
2004,07,07,14,19,35.30
2004,07,07,14,20,41.80
2004,07,07,14,21,19.40
2004,07,07,14,22,17.60
2004,07,07,14,23,25.90
2004,07,07,14,24,35.30
2004,07,07,14,25,33.80
2004,07,07,14,26,32.00
2004,07,07,14,27,40.30
2004,07,07,14,28,35.30
2004,07,07,14,29,27.40
2004,07,07,14,30,25.90
2004,07,07,14,31,17.60
2004,07,07,14,32,30.60
2004,07,07,14,33,30.60
2004,07,07,14,34,25.90
2004,07,07,14,35,25.90
2004,07,07,14,36,27.40
2004,07,07,14,37,40.30
2004,07,07,14,38,27.40
2004,07,07,14,39,22.70
2004,07,07,14,40,17.60
2004,07,07,14,41,27.40
2004,07,07,14,42,22.70
2004,07,07,14,43,13.00
2004,07,07,14,44,20.90
2004,07,07,14,45,25.90
2004,07,07,14,46,25.90
2004,07,07,14,47,20.90
2004,07,07,14,48,25.90
2004,07,07,14,49,16.20
2004,07,07,14,50,25.90
2004,07,07,14,51,28.80
2004,07,07,14,52,20.90
2004,07,07,14,53,32.00
2004,07,07,14,54,25.90
2004,07,07,14,55,9.70
2004,07,07,14,56,17.60
2004,07,07,14,57,19.40
2004,07,07,14,58,13.00
2004,07,07,14,59,28.80
2004,07,07,15,00,25.90
2004,07,07,15,01,20.90
2004,07,07,15,02,25.90
2004,07,07,15,03,25.90
2004,07,07,15,04,22.70
2004,07,07,15,05,22.70
2004,07,07,15,06,20.90
2004,07,07,15,07,20.90
2004,07,07,15,08,27.40
2004,07,07,15,09,25.90
2004,07,07,15,10,17.60
2004,07,07,15,11,30.60
2004,07,07,15,12,28.80
2004,07,07,15,13,25.90
2004,07,07,15,14,13.00
2004,07,07,15,15,19.40
2004,07,07,15,16,25.90
2004,07,07,15,17,17.60
2004,07,07,15,18,25.90
2004,07,07,15,19,22.70
2004,07,07,15,20,22.70
2004,07,07,15,21,19.40
2004,07,07,15,22,27.40
2004,07,07,15,23,27.40
2004,07,07,15,24,13.00
2004,07,07,15,25,25.90
2004,07,07,15,26,17.60
2004,07,07,15,27,19.40
2004,07,07,15,28,16.20
2004,07,07,15,29,13.00
2004,07,07,15,30,17.60
2004,07,07,15,31,19.40
2004,07,07,15,32,20.90
2004,07,07,15,33,19.40
2004,07,07,15,34,30.60
2004,07,07,15,35,13.00
2004,07,07,15,36,17.60
2004,07,07,15,37,16.20
2004,07,07,15,38,25.90
2004,07,07,15,39,20.90
2004,07,07,15,40,25.90
2004,07,07,15,41,22.70
2004,07,07,15,42,27.40
2004,07,07,15,43,27.40
2004,07,07,15,44,28.80
2004,07,07,15,45,27.40
2004,07,07,15,46,30.60
2004,07,07,15,47,22.70
2004,07,07,15,48,20.90
2004,07,07,15,49,22.70
2004,07,07,15,50,27.40
2004,07,07,15,51,20.90
2004,07,07,15,52,19.40
2004,07,07,15,53,27.40
2004,07,07,15,54,22.70
2004,07,07,15,55,22.70
2004,07,07,15,56,28.80
2004,07,07,15,57,25.90
2004,07,07,15,58,30.60
2004,07,07,15,59,20.90
2004,07,07,16,00,20.90
2004,07,07,16,01,16.20
2004,07,07,16,02,30.60
2004,07,07,16,03,25.90
2004,07,07,16,04,32.00
2004,07,07,16,05,17.60
2004,07,07,16,06,28.80
2004,07,07,16,07,22.70
2004,07,07,16,08,25.90
2004,07,07,16,09,28.80
2004,07,07,16,10,20.90
2004,07,07,16,11,25.90
2004,07,07,16,12,30.60
2004,07,07,16,13,20.90
2004,07,07,16,14,25.90
2004,07,07,16,15,27.40
2004,07,07,16,16,19.40
2004,07,07,16,17,20.90
2004,07,07,16,18,19.40
2004,07,07,16,19,27.40
2004,07,07,16,20,22.70
2004,07,07,16,21,33.80
2004,07,07,16,22,25.90
2004,07,07,16,23,19.40
2004,07,07,16,24,28.80
2004,07,07,16,25,20.90
2004,07,07,16,26,20.90
2004,07,07,16,27,25.90
2004,07,07,16,28,28.80
2004,07,07,16,29,25.90
2004,07,07,16,30,17.60
2004,07,07,16,31,17.60
2004,07,07,16,32,17.60
2004,07,07,16,33,25.90
2004,07,07,16,34,20.90
2004,07,07,16,35,19.40
2004,07,07,16,36,25.90
2004,07,07,16,37,27.40
2004,07,07,16,38,19.40
2004,07,07,16,39,19.40
2004,07,07,16,40,13.00
2004,07,07,16,41,19.40
2004,07,07,16,42,13.00
2004,07,07,16,43,13.00
2004,07,07,16,44,13.00
2004,07,07,16,45,22.70
2004,07,07,16,46,19.40
2004,07,07,16,47,16.20
2004,07,07,16,48,20.90
2004,07,07,16,49,27.40
2004,07,07,16,50,25.90
2004,07,07,16,51,22.70
2004,07,07,16,52,28.80
2004,07,07,16,53,33.80
2004,07,07,16,54,19.40
2004,07,07,16,55,20.90
2004,07,07,16,56,22.70
2004,07,07,16,57,32.00
2004,07,07,16,58,19.40
2004,07,07,16,59,33.80
2004,07,07,17,00,33.80
2004,07,07,17,01,27.40
2004,07,07,17,02,19.40
2004,07,07,17,03,13.00
2004,07,07,17,04,20.90
2004,07,07,17,05,25.90
2004,07,07,17,06,22.70
2004,07,07,17,07,25.90
2004,07,07,17,08,11.20
2004,07,07,17,09,22.70
2004,07,07,17,10,11.20
2004,07,07,17,11,19.40
2004,07,07,17,12,22.70
2004,07,07,17,13,19.40
2004,07,07,17,14,20.90
2004,07,07,17,15,16.20
2004,07,07,17,16,16.20
2004,07,07,17,17,28.80
2004,07,07,17,18,16.20
2004,07,07,17,19,16.20
2004,07,07,17,20,17.60
2004,07,07,17,21,16.20
2004,07,07,17,22,16.20
2004,07,07,17,23,17.60
2004,07,07,17,24,16.20
2004,07,07,17,25,27.40